Theta_e
327 324 321 317 304 302 297 299 301 303 303 303 305 302 301 303 301 298 318 325 327 334 343 348 350 353 352 351 351 351 351 351 348 349 349 348 347 347 348 350 348 346 345 342 341 339 338 336 333
320 320 318 311 299 294 294 299 301 303 304 304 304 303 302 300 308 314 317 327 328 334 343 345 348 351 352 351 350 350 351 351 349 348 346 345 344 342 342 347 345 343 341 339 338 336 333 330 330
320 318 309 304 298 294 294 300 301 303 305 302 302 304 302 304 309 313 322 328 327 329 343 345 347 351 351 351 350 350 350 351 350 347 346 344 341 339 338 339 339 340 340 335 334 332 329 328 326
316 312 308 297 296 298 298 300 303 303 303 303 303 301 304 310 310 317 324 328 325 328 341 343 348 351 351 351 350 350 350 351 350 349 346 344 340 336 336 337 337 336 335 332 330 328 326 324 321
314 309 299 296 297 297 298 302 301 301 302 302 302 300 302 308 315 317 323 327 324 327 335 344 346 349 351 351 350 349 349 350 350 349 348 340 338 336 333 334 335 335 333 329 328 325 323 321 318
306 304 296 294 296 299 300 304 302 302 301 302 299 300 302 310 311 313 322 325 327 327 333 342 340 343 347 349 349 348 348 349 350 348 345 342 338 336 333 333 334 333 330 327 327 322 321 319 317
304 301 296 295 297 298 301 302 299 300 301 300 302 297 302 305 311 314 317 323 326 327 330 334 340 340 338 342 344 345 346 347 347 344 342 340 339 335 333 333 332 331 327 326 324 321 319 317 315
306 302 295 294 295 297 301 301 301 300 300 303 303 297 301 305 311 311 315 318 323 326 329 330 335 338 338 339 336 338 341 342 341 338 335 333 333 332 331 329 331 328 325 325 322 320 318 316 312
309 297 294 297 297 297 302 298 302 302 299 302 304 302 305 311 312 311 315 316 320 324 327 330 331 334 335 337 335 332 334 335 333 331 329 326 326 326 324 324 327 327 326 323 321 319 316 313 308
302 297 298 301 300 299 301 300 300 299 300 300 302 306 307 309 308 309 310 312 316 319 324 328 330 331 332 335 334 334 333 332 331 331 328 327 325 323 322 319 324 326 325 323 320 318 314 309 299
304 298 302 302 304 303 301 300 302 299 298 301 300 303 304 303 305 306 307 309 312 318 322 326 328 330 330 331 329 332 332 329 332 332 329 327 325 319 315 314 316 314 315 311 312 308 303 299 297
299 303 303 304 304 302 300 303 300 301 301 305 304 305 304 304 304 305 306 307 307 311 319 324 326 328 328 329 327 327 328 326 329 326 328 327 321 316 313 313 313 312 309 307 305 300 299 298 298
299 302 304 304 303 302 303 301 300 301 303 305 305 305 304 303 304 305 306 307 308 309 311 319 324 325 327 327 326 326 326 328 327 325 327 327 319 314 312 311 312 312 308 307 303 298 298 297 296
301 301 301 301 301 302 300 299 298 301 303 303 303 302 302 302 304 303 304 305 306 308 310 314 322 324 324 325 325 326 324 325 327 326 327 325 318 313 311 310 310 310 307 304 300 298 296 296 296
301 296 298 299 300 299 300 295 296 301 302 301 302 300 301 302 303 302 304 305 306 307 309 311 316 321 321 323 324 324 324 323 324 325 323 321 316 312 310 308 308 308 305 302 298 297 296 295 296
296 295 290 298 300 298 297 290 298 301 299 299 300 299 300 302 303 303 304 304 304 305 308 310 313 316 319 319 320 323 321 321 321 321 320 319 316 312 308 307 306 306 302 298 296 294 294 293 293
293 287 290 294 300 297 294 291 298 300 299 298 300 300 300 301 302 302 303 303 304 304 304 307 311 312 315 318 318 319 320 319 318 319 317 316 315 311 307 305 305 303 298 295 295 293 293 292 291
289 290 292 292 296 296 293 292 297 299 299 299 300 299 299 299 299 301 300 301 301 301 302 303 305 309 312 313 315 315 316 316 316 315 315 314 313 310 305 303 303 300 296 294 294 292 293 292 292
293 290 290 293 297 294 294 294 295 298 299 299 299 298 297 298 299 299 299 299 299 300 300 301 301 303 306 307 308 310 310 312 313 313 313 313 311 309 305 301 300 298 296 295 294 293 292 291 291
293 290 289 293 296 294 292 292 296 297 298 298 297 296 296 296 296 297 297 297 297 297 298 299 300 301 302 304 306 307 308 309 311 312 311 311 309 307 305 301 299 296 294 293 294 292 291 291 291
292 290 290 289 292 293 290 287 291 296 297 297 297 296 295 294 294 295 295 295 295 295 295 297 298 299 300 301 303 303 303 301 301 305 306 308 308 306 304 301 298 296 294 294 293 293 292 288 289
288 294 292 290 286 282 289 279 288 294 294 294 294 293 293 293 294 294 294 294 294 294 295 295 296 296 299 299 300 299 299 297 298 300 303 305 306 305 303 301 299 296 294 293 292 293 293 290 289
291 292 290 289 285 284 285 282 287 293 289 290 292 292 292 293 293 292 292 293 294 294 293 293 294 295 295 296 296 296 296 297 297 298 297 298 300 301 302 301 298 297 295 292 292 291 290 291 289
293 289 289 288 285 279 286 285 286 288 289 289 292 292 293 292 292 293 293 293 292 292 291 292 292 292 293 294 293 293 292 292 293 294 294 295 296 297 298 299 298 297 295 292 291 291 290 290 290
289 285 280 279 277 279 288 285 287 294 292 292 291 291 291 291 291 291 291 291 291 290 290 291 290 289 290 291 291 291 291 291 291 291 292 292 293 294 295 295 295 295 295 293 292 290 289 290 290
288 289 281 274 277 279 286 280 288 293 293 293 292 291 291 290 290 290 290 290 289 290 290 290 289 288 288 289 289 290 290 291 291 291 291 291 292 292 293 294 294 294 294 293 291 289 289 289 291
290 286 292 285 281 280 282 287 292 292 291 291 290 289 288 288 289 289 290 289 288 288 289 289 288 287 287 288 289 288 288 288 288 289 289 289 290 292 291 291 291 292 292 292 291 288 288 288 288
290 292 284 285 273 268 279 280 284 289 290 290 288 286 287 287 287 287 288 288 287 286 286 287 287 285 285 286 287 287 287 287 287 287 286 287 288 289 288 288 288 289 290 290 289 288 287 287 287
286 285 285 286 282 275 275 279 290 289 291 288 287 287 286 286 285 285 286 288 287 285 285 285 286 285 284 285 286 285 285 285 285 284 285 285 286 286 287 287 286 287 287 287 287 287 287 286 286
290 288 288 283 279 281 282 282 291 288 288 288 287 287 286 286 284 284 285 286 287 285 283 284 284 284 284 285 285 285 284 284 282 282 283 283 284 284 285 286 285 285 286 285 286 286 287 285 285
Wind_Speed
7 9 4 3 1 3 3 5 1 8 5 3 2 3 4 5 4 0 4 6 4 10 14 12 15 16 15 14 14 12 11 13 12 13 13 12 10 8 7 9 10 10 10 8 7 7 8 7 8
8 8 2 4 2 2 3 2 8 5 3 2 3 4 4 2 5 7 6 6 6 10 15 12 12 15 15 15 14 11 10 11 12 11 10 10 9 8 4 8 10 10 9 7 7 7 8 7 7
8 6 2 2 3 4 3 4 5 2 6 2 3 1 2 3 6 4 5 8 5 7 14 13 14 15 15 15 15 14 12 13 13 13 12 10 8 7 5 3 4 7 9 5 6 6 7 7 7
4 2 3 1 6 4 5 6 7 7 4 3 4 7 4 5 2 6 6 8 6 8 10 12 17 16 17 15 15 15 13 11 12 14 15 14 11 6 6 4 3 3 5 5 6 7 6 6 7
3 4 3 3 7 2 2 6 3 4 4 3 4 4 5 3 9 8 7 7 7 8 6 14 18 14 16 17 16 15 14 13 12 13 17 11 9 9 6 5 6 6 6 6 7 6 7 6 7
3 1 3 5 6 5 4 6 4 4 2 5 1 5 2 7 8 7 7 8 7 8 7 9 11 12 12 15 15 15 14 13 12 14 11 12 10 9 8 6 7 8 7 7 7 7 7 7 7
2 1 5 6 7 6 3 3 3 5 7 3 3 3 2 4 6 7 6 7 7 8 8 8 9 10 10 11 12 12 12 12 13 12 12 12 10 10 9 8 9 9 8 8 7 7 7 7 7
3 1 5 3 4 6 5 2 2 4 6 2 3 5 2 3 6 3 2 4 7 5 8 7 9 10 7 7 11 11 11 11 12 12 11 10 9 9 9 6 7 9 9 9 9 8 8 8 7
2 2 4 7 3 3 6 3 2 2 3 6 6 5 5 9 8 5 4 3 4 5 7 8 7 10 10 9 9 11 12 11 10 10 9 8 5 6 7 7 9 9 9 9 9 8 8 8 6
2 3 5 6 7 7 10 7 8 5 9 9 7 10 10 9 7 8 8 8 9 8 7 8 8 8 9 9 8 9 7 6 5 7 7 5 5 5 6 7 9 9 10 10 10 9 8 8 3
5 4 7 9 10 7 7 9 7 8 9 10 10 12 7 3 8 9 9 9 10 10 8 9 8 8 8 7 5 6 5 4 5 8 6 5 5 4 4 4 4 4 7 3 5 5 3 4 2
7 9 9 10 8 2 4 8 10 11 12 11 12 11 9 9 9 8 9 9 7 8 12 11 10 8 8 5 5 5 5 4 6 4 8 6 4 5 5 4 5 5 4 5 5 3 4 3 3
7 9 10 10 7 7 7 9 8 22 14 12 14 13 10 9 8 8 9 8 9 9 8 11 12 9 7 7 5 5 5 7 8 5 7 6 5 5 5 5 5 5 5 5 5 5 4 3 4
7 8 9 9 14 14 11 10 3 15 11 15 11 10 9 10 11 8 7 7 7 8 9 7 12 12 9 8 8 6 5 6 9 8 9 9 6 5 5 5 5 5 5 5 5 5 5 4 3
7 6 10 13 12 10 5 7 10 16 10 9 9 9 10 8 9 8 9 9 10 8 9 9 8 10 10 10 7 5 5 5 5 7 8 9 7 7 7 5 5 5 5 7 5 5 5 4 3
7 7 5 7 8 4 8 8 11 10 8 11 14 11 9 11 10 9 11 9 8 5 8 8 6 6 7 6 5 5 3 4 4 5 5 8 8 8 7 5 5 6 5 5 4 4 3 4 4
7 6 10 12 10 5 6 5 8 10 10 12 19 13 8 10 13 17 19 17 15 13 10 1 8 9 8 6 3 5 6 4 4 4 4 7 8 8 7 6 5 6 6 5 6 4 5 3 4
7 11 11 14 9 7 7 10 10 10 10 15 13 10 8 11 16 18 21 19 17 15 15 13 7 4 6 4 3 1 3 2 4 3 4 7 6 7 6 5 7 6 6 5 5 6 4 4 5
5 8 11 11 9 12 14 15 9 9 16 19 14 10 4 15 16 18 18 16 17 18 16 14 10 8 5 3 2 1 2 2 1 2 4 5 6 6 6 4 5 7 10 11 9 5 7 3 5
10 11 13 8 7 8 11 16 20 20 18 16 7 14 14 15 16 16 15 14 15 15 14 14 13 11 6 4 2 2 1 0 3 3 3 4 7 7 5 5 4 5 3 6 9 7 5 4 8
11 12 10 8 7 6 9 8 8 9 3 18 16 16 17 15 14 13 14 14 13 15 14 15 15 13 10 9 5 4 4 4 4 3 2 1 3 5 6 7 6 6 5 7 7 8 10 5 6
9 8 2 5 4 3 8 7 6 16 5 14 13 14 12 10 10 11 12 15 15 14 12 14 14 14 12 12 7 7 3 2 1 2 3 3 4 3 5 6 6 6 5 6 6 6 8 6 8
4 3 3 5 4 5 8 5 6 7 10 9 9 11 9 8 8 10 10 11 10 9 11 10 12 14 13 12 11 7 7 5 3 3 6 4 1 2 3 4 6 6 5 5 7 6 7 6 6
4 4 9 7 5 2 4 4 5 4 9 6 8 9 9 8 8 9 8 7 7 7 7 8 11 13 13 12 12 9 8 7 6 6 5 3 2 2 4 5 5 6 6 7 6 7 8 7 6
2 3 5 2 1 6 7 4 4 3 10 13 13 11 9 8 7 8 9 9 10 12 12 11 13 13 11 10 9 10 10 9 7 7 5 6 5 2 4 6 6 4 5 5 6 7 7 9 8
5 1 4 5 3 4 7 6 6 7 13 14 12 10 8 8 7 7 8 7 8 9 11 11 12 10 10 9 9 8 8 5 6 8 7 6 5 5 6 6 6 7 7 6 6 4 5 7 9
4 2 3 2 3 2 6 5 8 14 12 10 10 9 8 7 7 7 7 7 7 7 7 8 9 9 9 8 7 7 8 8 7 8 7 7 8 9 9 8 7 6 6 7 6 5 6 7 7
2 4 1 2 4 5 6 5 7 7 10 10 9 8 7 6 6 5 5 7 6 6 5 7 6 6 6 7 8 7 6 6 6 5 7 7 8 9 9 8 8 8 7 6 6 5 6 7 6
2 2 4 1 3 4 8 7 8 6 6 11 8 7 6 5 4 4 5 6 7 6 6 5 5 6 6 6 5 4 5 6 7 9 8 7 6 7 8 9 8 8 7 7 7 7 7 8 8
6 9 7 7 6 4 11 15 6 7 8 8 7 6 5 5 5 5 5 4 4 4 4 4 4 3 2 3 4 5 3 5 6 7 7 8 10 8 6 6 6 7 8 7 7 8 7 8 9
Wind_Direction
283 241 269 314 266 203 280 79 5 26 44 41 4 4 301 271 280 282 165 170 241 131 146 162 164 160 158 160 160 165 169 158 158 166 147 136 127 111 101 125 110 97 91 95 91 85 78 70 64
308 305 259 273 250 272 70 88 75 52 31 360 242 252 240 352 70 124 136 154 229 141 146 166 167 163 161 163 158 161 172 161 163 156 142 132 137 125 127 109 109 107 96 93 96 94 87 73 60
277 273 285 289 283 12 14 91 79 76 124 239 302 151 300 354 89 102 107 141 205 152 149 167 165 167 165 166 162 169 179 179 168 162 161 155 147 136 150 69 59 98 105 113 105 100 88 77 64
305 227 262 268 307 17 10 354 34 327 100 110 352 294 130 77 80 82 125 142 180 158 150 155 166 172 170 171 171 175 182 179 174 171 170 162 154 164 168 178 152 170 131 130 118 106 92 78 67
232 263 275 226 258 95 356 5 72 310 303 158 148 298 322 90 111 127 145 149 176 158 158 155 166 180 178 176 178 180 185 190 194 187 179 181 181 172 174 185 190 164 157 143 126 110 99 84 76
281 199 279 264 0 2 63 58 360 267 291 106 212 260 236 128 134 150 146 165 185 158 155 154 167 170 184 184 185 186 189 194 200 178 174 152 187 192 189 195 178 167 157 152 131 125 115 107 94
243 300 261 308 303 295 119 76 282 356 321 314 112 294 285 132 106 126 169 169 186 167 160 154 170 185 185 186 188 193 197 201 184 171 152 145 170 193 196 194 175 166 165 151 140 130 122 108 96
318 326 281 276 285 322 103 101 43 320 308 212 52 252 57 152 85 95 192 217 175 196 163 187 166 177 188 191 191 196 198 184 173 163 156 153 158 174 187 179 175 175 170 156 149 144 135 124 112
291 295 273 283 308 269 120 166 130 266 262 280 193 222 194 156 146 168 183 240 231 210 181 181 193 182 186 187 184 183 178 177 166 159 155 136 151 156 164 172 176 185 166 159 154 149 137 126 121
233 237 260 321 340 327 330 349 335 331 294 283 292 251 224 160 170 186 201 210 208 214 215 185 191 191 184 195 176 180 174 174 170 167 160 148 160 166 173 172 177 172 152 160 161 153 147 160 159
209 227 284 311 329 17 340 311 295 284 277 262 279 312 318 236 197 203 221 221 208 200 194 199 194 191 187 197 172 180 180 187 185 200 159 163 182 177 162 138 146 135 135 145 143 135 175 228 153
254 251 272 287 284 315 284 308 306 281 254 277 280 281 281 281 272 234 229 220 218 214 200 188 192 193 194 177 182 163 168 177 194 184 182 166 181 167 160 145 160 151 157 163 152 170 205 130 95
258 254 257 284 285 276 284 269 279 280 277 265 268 272 276 276 274 240 250 247 216 222 212 190 183 185 190 194 186 176 175 177 189 181 190 194 172 162 155 162 163 161 158 164 160 163 158 160 157
306 339 310 284 274 267 262 267 288 276 277 279 267 275 273 262 245 244 232 240 230 221 219 206 180 187 179 193 194 189 182 177 176 187 193 190 159 153 163 180 175 167 158 159 151 158 168 173 157
342 324 285 270 258 244 152 298 234 255 287 277 283 282 277 284 308 275 232 224 221 220 195 196 192 179 185 189 191 196 191 190 167 179 177 163 156 163 167 171 168 165 154 150 149 160 158 152 162
276 250 282 266 263 155 113 271 284 292 9 325 306 286 301 302 306 302 359 13 13 330 178 184 162 173 182 193 182 181 198 190 180 170 163 163 165 163 168 170 174 162 148 145 144 156 156 164 163
234 260 271 285 272 129 160 245 276 299 293 282 273 281 284 284 25 36 32 23 16 11 6 148 170 170 174 186 183 182 185 177 185 170 164 164 174 173 161 170 174 159 151 151 157 167 158 164 173
280 298 312 310 315 306 261 247 252 265 284 269 283 292 298 67 51 40 31 22 17 16 16 19 15 154 159 138 166 171 161 179 159 183 165 168 174 180 166 172 171 157 150 162 169 165 176 161 165
315 309 298 298 307 298 285 289 308 284 271 288 291 292 26 72 60 49 41 25 20 18 14 10 17 7 79 83 104 104 172 162 142 155 180 174 166 180 180 179 176 169 173 178 175 161 170 174 150
297 286 284 278 283 325 320 299 290 276 268 264 294 61 66 61 49 45 42 38 28 21 18 13 12 19 31 44 57 83 110 221 160 161 169 185 165 170 177 177 186 181 174 187 182 164 159 162 170
272 270 291 313 342 302 300 281 269 281 19 74 64 71 62 56 47 40 35 34 34 27 27 24 17 18 15 12 29 32 42 30 33 20 49 272 154 171 178 189 185 179 177 191 196 188 177 166 203
277 260 320 301 336 234 47 281 329 281 79 80 75 67 56 56 59 51 41 37 30 22 19 27 26 21 18 16 15 33 55 73 345 232 182 164 167 192 194 200 205 189 187 193 196 199 197 160 187
260 10 280 253 244 308 233 250 246 234 107 104 91 86 75 66 62 58 51 49 35 31 23 25 29 29 15 21 26 24 17 359 347 27 59 28 24 257 267 239 213 217 199 210 196 195 203 207 179
13 296 268 257 215 287 238 210 302 93 156 123 110 96 91 74 64 60 58 51 45 33 42 36 37 26 25 23 17 22 18 4 2 4 2 351 200 207 235 266 261 240 220 202 206 209 202 204 212
85 330 309 290 101 211 52 3 255 348 171 153 132 109 93 80 62 50 43 38 32 32 29 34 30 27 26 12 26 21 10 2 11 16 6 1 339 311 231 220 234 235 243 239 217 212 206 211 217
174 338 185 263 319 306 2 237 246 82 80 91 97 100 80 68 65 60 47 40 40 38 30 27 28 28 19 9 15 18 8 16 22 13 11 359 351 336 348 309 250 228 231 242 231 226 223 224 226
141 191 76 41 235 211 231 277 290 116 104 110 107 93 90 77 65 66 67 62 53 44 43 35 33 15 5 1 16 24 17 11 16 24 26 16 356 344 342 326 317 291 247 231 241 232 234 233 229
187 111 44 172 259 241 262 280 264 93 138 124 107 101 98 94 87 93 108 104 86 73 60 44 56 33 19 10 359 7 12 5 1 27 30 9 352 349 338 339 335 327 306 263 244 242 236 232 235
155 195 210 250 200 249 274 257 96 85 108 128 128 123 125 131 114 81 57 50 66 51 55 71 57 44 9 357 336 354 1 353 356 22 18 5 343 336 340 339 333 322 315 296 267 250 241 238 234
274 265 266 244 253 243 256 257 29 109 118 123 139 144 127 79 68 72 73 67 57 56 35 29 27 76 8 334 326 330 15 360 16 19 357 343 337 335 319 321 318 317 310 303 290 279 265 242 244